Change the Weather History Date:

Wednesday, January 9, 2013

  Actual Average Record
Temperature  
Mean Temperature 67 °F -  
Max Temperature 80 °F 80 °F 86 °F (2000)
Min Temperature 54 °F 54 °F 48 °F (1999)
Cooling Degree Days 2    
Growing Degree Days 17 (Base 50)    
Moisture  
Dew Point 37 °F    
Average Humidity 36    
Maximum Humidity 55    
Minimum Humidity 17    
Precipitation  
Precipitation 0.00 in 0.00 in - ()
Sea Level Pressure  
Sea Level Pressure 29.99 in    
Wind  
Wind Speed 6 mph ()    
Max Wind Speed 13 mph    
Max Gust Speed -    
Visibility 2.6 miles    
Events      
Averages and records for this station are not official NWS values.
T = Trace of Precipitation, MM = Missing Value Source: Averaged Metar Reports

Daily Weather History Graph

Daily Weather History Graph

Search for Another Location

Airport or City:

Trip Planner

Search our weather history database for the weather conditions in past years. The results will help you decide how hot, cold, wet, or windy it might be!

Date:

Astronomy

Jan. 09, 2013 Rise Set
Actual Time 7:22 AM IST 6:10 PM IST
Civil Twilight 6:58 AM IST 6:35 PM IST
Nautical Twilight 6:30 AM IST 7:03 PM IST
Astronomical Twilight 6:02 AM IST 7:30 PM IST
Moon 4:32 AM IST (1/9) 3:44 PM IST (1/9)
Length of Visible Light 11h 37m
Length of Day
10h 48m
Waning Crescent, 9% of the Moon is Illuminated
Jan 9
Waning Crescent
Jan 12
New
Jan 19
First Quarter
Jan 27
Full
Feb 3
Last Quarter

Hourly Weather History & Observations

Time (IST) Temp. Dew Point Humidity Pressure Visibility Wind Dir Wind Speed Gust Speed Precip Events Conditions
12:10 AM 59.0 °F 32.0 °F 36% 29.98 in 2.5 mi NE 6.9 mph - N/A   Smoke
12:40 AM 59.0 °F 32.0 °F 36% 29.98 in 2.5 mi NE 6.9 mph - N/A   Smoke
2:10 AM 55.4 °F 32.0 °F 41% 29.98 in 2.5 mi NE 6.9 mph - N/A   Smoke
2:30 AM 59 °F 40 °F 37% 30.01 in 1 mi NE 4.6 mph - -   Smoke
2:40 AM 55.4 °F 33.8 °F 44% 29.98 in 2.5 mi NE 6.9 mph - N/A   Smoke
3:10 AM 55.4 °F 33.8 °F 44% 29.98 in 2.5 mi NE 6.9 mph - N/A   Smoke
3:40 AM 55.4 °F 33.8 °F 44% 29.95 in 2.5 mi NE 5.8 mph - N/A   Smoke
4:10 AM 53.6 °F 33.8 °F 47% 29.95 in 2.5 mi ENE 8.1 mph - N/A   Smoke
4:40 AM 53.6 °F 33.8 °F 47% 29.95 in 2.5 mi ENE 5.8 mph - N/A   Smoke
5:10 AM 53.6 °F 33.8 °F 47% 29.95 in 2.5 mi ENE 6.9 mph - N/A   Smoke
5:30 AM 57 °F 39 °F 40% 29.99 in 1 mi NE 5.8 mph - -   Smoke
5:40 AM 53.6 °F 33.8 °F 47% 29.95 in 2.5 mi NE 5.8 mph - N/A   Smoke
6:10 AM 53.6 °F 33.8 °F 47% 29.98 in 2.2 mi NE 6.9 mph - N/A   Smoke
7:10 AM 53.6 °F 33.8 °F 47% 30.01 in 1.9 mi ENE 5.8 mph - N/A   Smoke
7:40 AM 53.6 °F 33.8 °F 47% 30.01 in 1.9 mi NE 6.9 mph - N/A   Smoke
8:10 AM 53.6 °F 33.8 °F 47% 30.04 in 1.9 mi NE 6.9 mph - N/A   Smoke
8:30 AM 58 °F 38 °F 36% 30.05 in 2 mi NE 6.9 mph - -  
8:40 AM 57.2 °F 33.8 °F 41% 30.04 in 1.9 mi NE 9.2 mph - N/A   Smoke
9:10 AM 62.6 °F 32.0 °F 32% 30.06 in 1.9 mi NE 10.4 mph - N/A   Smoke
9:40 AM 64.4 °F 33.8 °F 32% 30.06 in 2.5 mi NE 11.5 mph - N/A   Smoke
10:40 AM 71.6 °F 33.8 °F 25% 30.06 in 3.1 mi ENE 11.5 mph - N/A   Smoke
11:10 AM 73.4 °F 33.8 °F 23% 30.06 in 3.1 mi East 12.7 mph - N/A   Smoke
11:30 AM 74 °F 43 °F 22% 30.08 in 2 mi East 5.8 mph - -  
11:40 AM 75.2 °F 35.6 °F 24% 30.04 in 3.1 mi NE 10.4 mph - N/A   Smoke
12:10 PM 77.0 °F 35.6 °F 22% 30.04 in 3.1 mi East 10.4 mph - N/A   Smoke
12:40 PM 78.8 °F 37.4 °F 23% 30.01 in 3.1 mi ENE 9.2 mph - N/A   Smoke
1:10 PM 78.8 °F 37.4 °F 23% 29.98 in 3.7 mi ENE 8.1 mph - N/A   Unknown
1:40 PM 80.6 °F 35.6 °F 20% 29.98 in 3.7 mi NE 9.2 mph - N/A   Unknown
2:10 PM 80.6 °F 35.6 °F 20% 29.95 in 3.7 mi NE 8.1 mph - N/A   Unknown
2:30 PM 80 °F 43 °F 17% 29.99 in 2 mi North 4.6 mph - -  
2:40 PM 80.6 °F 35.6 °F 20% 29.95 in 3.7 mi ENE 6.9 mph - N/A   Unknown
3:10 PM 82.4 °F 37.4 °F 20% 29.92 in 3.7 mi NE 9.2 mph - N/A   Unknown
3:40 PM 82.4 °F 35.6 °F 19% 29.92 in 3.7 mi NNE 6.9 mph - N/A   Unknown
4:10 PM 80.6 °F 33.8 °F 18% 29.92 in 3.7 mi NNE 9.2 mph - N/A   Unknown
4:40 PM 80.6 °F 33.8 °F 18% 29.92 in 3.7 mi NNE 10.4 mph - N/A   Unknown
5:10 PM 78.8 °F 35.6 °F 21% 29.92 in 3.7 mi NNE 6.9 mph - N/A   Unknown
5:30 PM 78 °F 43 °F 19% 29.96 in 2 mi NNE 3.5 mph - -  
6:40 PM 71.6 °F 37.4 °F 29% 29.95 in 2.5 mi NNE 3.5 mph - N/A   Smoke
7:10 PM 68.0 °F 37.4 °F 33% 29.95 in 2.5 mi NE 3.5 mph - N/A   Smoke
7:40 PM 66.2 °F 41.0 °F 40% 29.95 in 2.5 mi NNE 3.5 mph - N/A   Smoke
8:30 PM 61 °F 48 °F 52% 30.00 in 2 mi Calm Calm - -  
8:40 PM 62.6 °F 44.6 °F 52% 29.98 in 2.5 mi North 3.5 mph - N/A   Smoke
9:10 PM 60.8 °F 41.0 °F 48% 29.98 in 2.5 mi NNE 3.5 mph - N/A   Smoke
9:40 PM 60.8 °F 41.0 °F 48% 29.98 in 2.5 mi NNE 3.5 mph - N/A   Smoke
10:10 PM 60.8 °F 42.8 °F 52% 29.98 in 2.5 mi NNE 3.5 mph - N/A   Smoke
10:40 PM 59.0 °F 42.8 °F 55% 29.98 in 2.5 mi NNE 3.5 mph - N/A   Smoke
11:10 PM 59.0 °F 42.8 °F 55% 29.98 in 2.5 mi North 4.6 mph - N/A   Smoke
11:30 PM 62 °F 47 °F 49% 30.00 in 2 mi North 3.5 mph - -  
11:40 PM 59.0 °F 41.0 °F 51% 29.98 in 2.5 mi NNE 3.5 mph - N/A   Smoke